Flag for Indonesia Weather past 2 weeks in Manado, North Sulawesi, Indonesia

Now
77 °F

Passing clouds.


Feels Like: 78 °F
Forecast: 76 / 88 °F
Wind: 2 mph from North

Location: Menado / Dr. Sam Ratulangi

Current Time: Apr 1, 2015 at 12:00:38 AM

Latest Report: Mar 31, 2015 at 11:00 PM


Visibility: 6 mi

Pressure: 29.92 "Hg

Humidity: 94%

Dew point: 75 °F

Location of ManadoLocation

Historic Weather in Manado — Graph

°F

Manado temperature yesterday

Maximum temperature yesterday: 88 °F (at 12:00 PM)
Minimum temperature yesterday: 73 °F (at 3:00 AM)
Average temperature yesterday: 81 °F

Past Weeks' High & Low Weather Summary

 TemperatureHumidityPressure
High90 °F (Mar 25, 2:30 PM)100% (Mar 18, 7:00 AM)29.98 "Hg (Mar 18, 7:00 AM)
Low70 °F (Mar 24, 5:30 AM)49% (Mar 26, 1:30 PM)29.80 "Hg (Mar 17, 3:30 PM)
Average81 °F81%29.88 "Hg
* Reported Mar 16 11:00 PM — Mar 31 11:00 PM, Manado, Weather by CustomWeather, © 2015

Note: Actual official high and low records may vary slightly from our data, if they occured in-between our weather recording intervals... More about our weather records

Advertising

Manado weather history for previous 24 hours

 ConditionsComfort  
Time TempWeatherWind HumidityBarometerVisibility
11:00 PM
Tue, Mar 31
77 °FPassing clouds.2 mph94%29.92 "Hg6 mi
10:30 PM77 °FPassing clouds.1 mph94%29.92 "Hg6 mi
10:00 PM77 °FPassing clouds.1 mph94%29.92 "Hg6 mi
9:30 PM77 °FPassing clouds.1 mph94%29.89 "Hg6 mi
9:00 PM77 °FPassing clouds.1 mph94%29.89 "Hg6 mi
8:30 PM77 °FPassing clouds.1 mph94%29.89 "Hg6 mi
8:00 PM79 °FPassing clouds.2 mph89%29.89 "Hg6 mi
7:30 PM79 °FPassing clouds.2 mph89%29.86 "Hg6 mi
7:00 PM81 °FPassing clouds.2 mph84%29.86 "Hg6 mi
6:30 PM81 °FPassing clouds.2 mph84%29.86 "HgN/A
6:00 PM82 °FPassing clouds.2 mph79%29.83 "HgN/A
5:30 PM82 °FPassing clouds.5 mph79%29.83 "HgN/A
5:00 PM86 °FPassing clouds.5 mph70%29.80 "HgN/A
4:30 PM86 °FScattered clouds.6 mph70%29.80 "HgN/A
4:00 PM88 °FScattered clouds.6 mph66%29.80 "HgN/A
3:30 PM86 °FScattered clouds.6 mph70%29.80 "HgN/A
3:00 PM86 °FScattered clouds.7 mph70%29.80 "HgN/A
2:30 PM88 °FScattered clouds.8 mph66%29.80 "HgN/A
2:00 PM88 °FScattered clouds.8 mph66%29.80 "HgN/A
1:30 PM88 °FScattered clouds.7 mph66%29.80 "HgN/A
1:00 PM88 °FScattered clouds.7 mph66%29.83 "HgN/A
12:30 PM86 °FScattered clouds.7 mph70%29.83 "Hg6 mi
12:00 PM88 °FScattered clouds.8 mph66%29.86 "Hg6 mi
11:30 AM86 °FScattered clouds.7 mph70%29.86 "HgN/A
11:00 AM86 °FScattered clouds.7 mph66%29.86 "HgN/A
10:30 AM86 °FScattered clouds.5 mph70%29.89 "HgN/A
10:00 AM86 °FScattered clouds.7 mph75%29.89 "HgN/A
9:30 AM86 °FScattered clouds.5 mph70%29.89 "HgN/A
9:00 AM86 °FScattered clouds.2 mph70%29.89 "HgN/A
8:30 AM84 °FPassing clouds.3 mph74%29.89 "HgN/A
8:00 AM84 °FPassing clouds.1 mph74%29.89 "HgN/A
7:30 AM82 °FPassing clouds.1 mph79%29.89 "Hg6 mi
7:00 AM79 °FPassing clouds.1 mph84%29.89 "Hg6 mi
6:30 AM75 °FPassing clouds.2 mph94%29.86 "Hg6 mi
6:00 AM73 °FPassing clouds.2 mph94%29.86 "Hg6 mi
5:30 AM73 °FPassing clouds.1 mph94%29.86 "Hg6 mi
5:00 AM73 °FPassing clouds.1 mph100%29.86 "Hg6 mi
4:00 AM73 °FPassing clouds.1 mph100%29.86 "Hg6 mi
3:00 AM73 °FPassing clouds.2 mph100%29.83 "Hg6 mi
2:00 AM75 °FPassing clouds.2 mph94%29.83 "Hg6 mi
12:00 AM75 °FPassing clouds.2 mph100%29.86 "Hg6 mi
Weather by CustomWeather, © 2015

See weather overviewHow to use our weather pages